Wind_Speed
45 47 50 53 54 53 54 54 54 54 54 52 51 51 51 54 58 62 64 66 65 65 64 64 64 64 65 64 64 63 62 64 66 70 70 67 66 61 55 52 51 47 43
43 47 50 50 51 53 56 57 59 59 58 58 58 56 55 55 54 54 56 59 62 64 65 65 64 63 63 62 61 60 59 58 55 57 57 58 55 51 51 49 48 45 45
49 47 48 51 52 54 55 54 56 59 62 62 61 59 60 59 58 57 56 55 55 57 58 59 59 58 57 57 56 54 54 53 52 53 51 51 51 51 49 48 46 46 46
55 54 54 54 53 53 54 57 59 59 57 59 60 61 63 62 63 62 62 61 59 58 57 57 57 57 56 56 54 53 52 51 50 51 51 51 51 51 49 49 46 45 43
62 61 61 62 61 60 60 57 57 60 59 60 61 61 61 63 66 66 67 67 65 64 63 61 60 59 59 58 57 55 54 53 52 51 50 52 52 51 48 48 46 46 44
67 67 67 68 68 67 68 66 63 62 63 64 61 62 62 63 63 67 72 71 69 68 66 66 66 65 64 63 62 60 58 57 56 53 52 54 52 51 51 49 50 49 48
77 76 74 75 75 75 74 72 70 69 68 68 66 64 64 65 66 67 67 68 71 73 72 69 67 66 64 65 66 65 63 63 63 60 56 55 54 54 53 54 53 54 52
84 84 85 82 80 81 81 80 79 76 76 74 71 68 69 70 70 70 70 70 70 70 70 70 71 73 73 70 67 67 68 68 68 66 63 61 60 58 57 56 55 56 57
92 92 92 90 89 88 89 88 87 87 86 83 79 76 73 72 75 75 76 74 74 72 71 69 69 69 68 69 70 73 73 70 68 67 65 64 65 64 61 60 58 57 58
90 98 99 100 97 96 95 96 96 95 94 93 91 88 85 82 80 79 80 81 79 79 77 74 72 71 70 69 69 69 69 71 73 73 71 68 66 67 67 67 66 65 65
107 108 100 101 105 106 103 103 103 104 103 103 101 98 96 92 91 85 83 86 83 85 83 79 78 77 76 74 72 73 72 73 72 69 70 73 72 70 69 69 68 69 67
89 98 102 104 106 108 113 111 111 110 111 111 110 109 106 102 99 96 91 90 91 90 89 87 84 81 81 80 76 75 75 74 73 73 72 70 68 69 71 71 70 70 68
103 96 98 106 110 111 116 118 120 119 117 116 117 116 116 114 111 107 102 100 96 94 94 94 91 89 87 85 84 84 83 80 77 73 72 72 71 68 67 67 67 66 65
106 104 103 103 104 114 115 122 124 127 126 126 124 122 124 124 121 118 113 109 107 104 99 99 98 97 96 94 92 90 88 87 87 82 77 77 74 73 72 72 72 72 69
109 108 109 111 115 113 117 120 126 131 133 133 135 134 131 131 129 128 124 120 114 109 106 104 105 105 104 100 98 97 96 95 93 91 88 84 84 82 78 77 76 75 74
108 109 111 115 119 119 121 125 126 132 138 142 144 141 139 139 137 136 133 130 128 121 113 112 110 111 112 109 108 106 104 103 102 98 95 93 91 90 87 85 83 79 78
101 103 105 108 110 112 116 121 124 133 138 142 145 148 151 150 147 145 143 140 136 133 127 121 121 120 118 117 115 114 111 110 109 108 105 101 98 97 95 92 91 90 87
95 97 98 99 101 103 107 111 116 124 129 137 144 147 148 148 153 153 151 149 146 143 135 130 131 130 130 130 128 126 124 121 118 116 115 113 109 106 102 101 97 94 93
93 93 95 95 95 97 99 101 106 111 116 123 129 135 142 143 147 150 153 154 155 151 148 139 134 137 137 136 136 135 134 131 130 128 124 120 117 115 112 111 105 102 99
93 93 94 95 96 96 97 98 99 101 105 110 115 120 126 133 137 139 139 142 151 150 152 148 143 143 142 142 144 142 141 141 138 136 132 130 126 123 120 117 113 109 107
91 92 94 96 97 98 99 98 97 97 98 101 105 110 115 118 123 126 127 129 129 134 140 145 146 147 148 148 148 149 149 150 145 142 141 138 135 130 126 122 121 120 118
90 90 91 91 92 94 94 96 96 97 98 98 100 102 105 108 112 116 119 120 124 126 128 130 136 142 150 154 156 155 153 154 152 148 150 146 145 138 133 130 127 126 125
90 90 90 90 91 92 92 92 92 91 92 93 95 98 101 104 105 106 109 113 118 120 121 123 121 126 131 148 154 157 159 159 156 156 155 150 149 145 143 139 137 136 134
88 89 89 89 89 91 91 92 91 90 90 91 92 94 95 97 99 100 103 106 110 112 114 116 116 120 123 128 133 139 148 162 162 157 160 157 157 151 152 149 146 143 141
87 87 87 88 87 89 88 89 86 84 85 88 90 93 94 95 98 99 99 100 101 105 107 109 109 109 115 121 127 128 128 134 131 152 169 163 159 159 160 158 152 150 148
88 87 86 86 85 84 85 83 81 81 82 82 85 87 87 88 92 96 97 99 102 103 101 100 101 103 107 111 116 119 122 121 120 126 135 150 156 168 172 168 163 159 157
Wind_Direction
269 268 265 265 265 266 267 268 268 268 267 266 265 265 265 264 262 261 260 259 258 258 259 260 261 261 262 263 263 265 264 264 265 263 264 270 272 274 274 274 273 273 268
273 272 269 266 263 263 262 263 263 264 265 267 268 269 268 268 269 267 265 263 262 262 261 261 261 261 262 263 263 264 265 265 265 266 268 269 269 270 270 269 270 266 262
272 270 272 271 271 269 264 261 261 262 263 264 264 265 265 265 265 266 266 265 265 266 266 265 264 263 263 263 263 263 265 266 267 267 268 268 269 269 267 265 264 261 259
273 273 271 269 267 266 267 267 266 263 261 261 262 263 261 261 262 261 262 262 262 263 264 265 265 266 265 264 265 264 263 265 266 267 267 265 266 265 265 264 260 256 255
272 273 271 271 269 266 264 263 265 267 266 263 261 261 262 260 258 258 258 258 259 260 260 261 261 263 264 265 264 264 264 264 264 263 263 264 263 264 261 260 258 257 255
267 268 270 272 271 269 269 266 263 261 262 263 262 262 261 260 261 260 258 257 257 258 259 260 261 261 261 261 262 263 264 264 263 262 261 261 261 262 260 259 255 254 256
267 267 266 267 268 270 269 268 266 264 263 262 259 260 262 262 260 258 261 263 262 260 258 257 257 258 259 260 260 260 259 260 261 262 260 260 262 261 260 258 256 254 254
264 264 265 264 265 265 267 268 268 266 264 261 260 259 260 260 260 261 261 260 260 260 261 260 260 259 257 256 257 258 258 258 257 257 257 258 258 258 259 260 257 255 256
267 265 263 263 264 263 265 264 265 266 266 265 262 259 258 260 260 259 260 260 261 261 260 261 262 261 261 261 259 257 255 255 255 255 255 254 255 254 254 255 257 258 258
271 266 266 264 260 262 261 260 262 262 262 264 264 264 261 259 260 260 260 259 260 260 260 259 259 259 259 259 259 258 258 257 255 254 255 253 252 253 254 254 255 255 256
268 269 266 264 263 260 260 259 259 258 259 261 259 259 260 260 259 257 258 260 258 259 260 259 258 258 258 258 259 260 258 258 258 257 255 254 253 254 254 254 254 254 253
269 264 262 261 260 259 258 258 258 257 257 258 258 258 257 255 256 255 254 257 259 257 257 258 258 257 257 258 255 253 255 256 257 258 257 256 255 255 255 256 257 258 258
275 268 263 261 260 258 255 255 255 256 256 256 256 257 257 257 255 254 253 253 254 255 256 255 255 255 254 253 255 255 257 257 253 254 254 256 255 253 253 254 255 255 255
276 273 269 263 259 258 257 253 253 253 253 254 255 254 255 256 255 255 253 252 252 252 255 254 253 252 252 253 253 254 256 256 256 255 251 253 252 253 253 253 254 255 254
274 273 269 267 264 258 254 255 255 252 252 254 253 253 254 253 254 254 253 253 250 249 249 252 252 253 251 252 252 253 253 253 255 256 255 252 252 252 251 252 254 255 256
276 273 270 268 265 263 260 254 253 253 253 253 253 252 252 253 253 253 252 252 251 249 246 246 248 249 252 252 252 253 254 254 254 255 255 255 253 253 253 253 253 253 253
277 275 273 271 269 266 263 261 258 256 254 254 256 255 253 253 253 253 253 253 252 250 249 245 247 248 249 251 252 253 253 253 254 255 255 255 255 255 256 256 257 257 255
279 278 276 274 271 267 265 262 261 260 258 258 257 258 256 257 255 254 253 253 253 252 252 248 246 246 248 249 251 252 253 254 254 254 254 255 253 253 255 256 256 257 258
279 278 276 274 272 270 268 265 263 261 260 259 258 258 258 258 257 257 256 255 255 254 254 253 248 246 247 248 250 251 252 253 253 253 254 254 254 255 255 255 256 257 257
281 279 278 277 275 273 271 268 266 264 263 262 261 260 259 259 259 259 258 258 257 256 256 256 255 251 247 247 248 249 251 252 253 253 253 254 254 254 254 254 255 257 256
277 276 276 275 275 274 273 272 270 268 266 264 263 262 261 260 260 260 260 260 259 258 257 257 255 255 252 250 248 247 248 249 249 251 253 254 254 253 253 253 255 257 257
281 280 278 277 275 274 272 271 270 270 269 268 266 265 264 262 261 260 261 260 259 259 258 257 257 256 255 254 252 250 250 250 248 251 252 252 254 255 254 253 253 253 254
283 281 280 279 278 277 275 273 271 269 268 267 267 266 265 264 263 262 261 260 260 259 258 258 257 256 255 255 255 254 251 251 251 250 251 252 253 254 255 254 254 254 253
284 283 282 280 278 277 276 275 273 272 271 269 268 265 264 264 264 263 261 260 260 260 260 259 257 256 256 255 254 254 253 253 252 252 251 251 252 253 253 252 253 254 253
286 284 283 281 280 278 276 274 274 273 271 269 268 266 265 264 263 263 262 262 261 260 259 259 259 257 255 256 256 255 253 252 251 251 251 253 251 251 252 252 252 253 254
286 285 285 283 282 281 279 278 277 275 272 270 269 267 267 265 263 262 261 261 261 261 261 261 259 257 256 255 255 255 254 254 252 250 251 252 252 252 251 251 253 251 251
Height
10753 10753 10753 10752 10752 10751 10751 10750 10750 10749 10749 10750 10750 10751 10752 10752 10752 10752 10752 10753 10753 10753 10755 10758 10760 10761 10763 10765 10766 10769 10772 10772 10776 10776 10779 10780 10782 10781 10781 10782 10783 10784 10785
10744 10742 10742 10741 10741 10741 10741 10740 10739 10738 10737 10738 10739 10740 10740 10740 10740 10740 10740 10741 10741 10742 10743 10745 10747 10747 10749 10751 10753 10755 10757 10759 10762 10763 10766 10768 10769 10770 10770 10771 10772 10775 10775
10732 10732 10731 10730 10730 10730 10728 10727 10726 10726 10727 10727 10727 10727 10728 10728 10727 10727 10727 10728 10729 10730 10731 10733 10734 10735 10736 10737 10739 10742 10744 10746 10751 10751 10755 10754 10756 10758 10759 10760 10763 10764 10766
10718 10717 10716 10716 10717 10716 10715 10715 10714 10714 10715 10714 10715 10715 10714 10713 10714 10714 10714 10716 10717 10718 10719 10721 10723 10724 10725 10726 10728 10730 10732 10734 10738 10741 10743 10743 10745 10746 10748 10750 10752 10754 10756
10705 10704 10702 10701 10699 10700 10699 10702 10702 10700 10701 10701 10701 10702 10702 10700 10700 10699 10699 10701 10702 10705 10707 10708 10710 10712 10714 10715 10717 10720 10721 10723 10726 10730 10732 10731 10733 10734 10737 10740 10742 10744 10747
10688 10688 10687 10685 10684 10685 10683 10685 10686 10685 10684 10684 10687 10687 10687 10687 10687 10684 10683 10685 10687 10690 10693 10695 10697 10699 10702 10704 10706 10708 10710 10711 10714 10718 10720 10719 10722 10724 10726 10728 10731 10733 10736
10669 10667 10667 10667 10667 10667 10667 10667 10668 10669 10668 10667 10670 10672 10672 10670 10669 10668 10671 10672 10674 10677 10679 10679 10681 10683 10687 10690 10693 10695 10697 10698 10700 10702 10707 10707 10709 10712 10714 10716 10719 10722 10723
10647 10646 10645 10644 10644 10645 10645 10646 10647 10648 10648 10649 10653 10654 10654 10652 10653 10654 10653 10654 10656 10660 10661 10664 10666 10669 10671 10674 10677 10679 10681 10682 10684 10686 10691 10693 10695 10698 10701 10703 10706 10709 10711
10626 10625 10622 10622 10620 10620 10622 10623 10625 10625 10625 10627 10630 10635 10637 10635 10634 10636 10635 10636 10639 10641 10644 10648 10650 10652 10655 10657 10660 10662 10664 10666 10668 10669 10673 10679 10679 10683 10686 10689 10691 10694 10698
10604 10601 10599 10597 10596 10596 10594 10596 10598 10600 10601 10603 10606 10610 10616 10618 10615 10617 10616 10618 10619 10621 10624 10628 10631 10633 10635 10637 10640 10642 10645 10648 10651 10654 10657 10663 10665 10667 10670 10673 10676 10678 10681
10577 10576 10571 10570 10569 10568 10568 10568 10567 10569 10573 10575 10577 10580 10586 10592 10595 10601 10596 10593 10602 10599 10601 10606 10610 10612 10615 10618 10621 10623 10625 10629 10633 10637 10640 10644 10650 10652 10654 10656 10660 10662 10665
10544 10541 10539 10538 10537 10537 10537 10537 10538 10539 10540 10543 10545 10548 10552 10559 10565 10573 10580 10572 10572 10577 10581 10583 10587 10590 10592 10596 10598 10601 10606 10611 10616 10620 10623 10626 10631 10634 10637 10640 10643 10646 10650
10510 10508 10507 10505 10503 10501 10502 10504 10505 10505 10507 10508 10511 10514 10517 10523 10530 10537 10549 10554 10552 10552 10555 10562 10563 10566 10570 10573 10578 10580 10585 10590 10595 10600 10605 10609 10613 10616 10619 10622 10625 10629 10633
10472 10470 10468 10468 10468 10467 10466 10466 10468 10469 10470 10472 10474 10478 10480 10485 10491 10501 10509 10520 10529 10532 10528 10532 10537 10541 10543 10549 10557 10561 10566 10568 10573 10578 10584 10589 10592 10597 10601 10604 10608 10611 10615
10434 10430 10428 10426 10428 10428 10428 10428 10429 10431 10433 10434 10436 10439 10442 10442 10451 10459 10470 10480 10494 10503 10509 10508 10508 10511 10519 10525 10529 10534 10542 10544 10549 10556 10561 10567 10571 10575 10580 10584 10588 10592 10595
10394 10390 10387 10384 10383 10383 10385 10389 10388 10388 10391 10391 10393 10398 10402 10404 10411 10416 10426 10437 10451 10468 10485 10479 10482 10483 10484 10496 10502 10507 10514 10518 10524 10531 10538 10542 10548 10553 10559 10564 10568 10572 10575
10354 10350 10347 10344 10342 10342 10343 10344 10346 10349 10349 10350 10351 10358 10360 10362 10371 10376 10383 10394 10406 10418 10444 10459 10454 10454 10459 10459 10467 10475 10484 10490 10495 10500 10509 10517 10523 10529 10534 10542 10547 10551 10555
10319 10314 10310 10307 10305 10304 10304 10304 10305 10305 10308 10309 10310 10315 10318 10321 10331 10336 10339 10350 10361 10372 10393 10418 10424 10422 10425 10427 10433 10438 10448 10458 10466 10469 10475 10485 10494 10503 10509 10515 10524 10529 10534
10286 10281 10276 10273 10271 10268 10267 10267 10267 10267 10267 10267 10268 10271 10272 10276 10286 10290 10297 10309 10317 10327 10341 10365 10388 10392 10393 10394 10398 10406 10413 10420 10428 10435 10442 10453 10464 10473 10482 10488 10497 10505 10510
10255 10249 10244 10240 10237 10234 10233 10232 10232 10232 10233 10231 10231 10231 10234 10236 10242 10247 10255 10265 10273 10284 10297 10313 10335 10347 10360 10364 10365 10369 10374 10379 10389 10397 10408 10420 10430 10441 10453 10461 10468 10478 10482
10226 10220 10215 10210 10205 10201 10199 10198 10199 10199 10199 10199 10196 10197 10198 10201 10204 10208 10216 10224 10231 10240 10249 10261 10283 10294 10315 10322 10324 10325 10338 10338 10351 10360 10366 10377 10392 10406 10422 10430 10438 10445 10449
10192 10187 10183 10179 10174 10168 10167 10165 10165 10166 10164 10166 10166 10163 10164 10167 10169 10173 10177 10184 10189 10195 10205 10213 10230 10244 10262 10268 10275 10284 10293 10296 10319 10332 10327 10343 10343 10365 10382 10395 10406 10410 10414
10159 10153 10150 10147 10141 10137 10135 10133 10132 10135 10135 10133 10133 10132 10129 10129 10134 10138 10140 10143 10147 10153 10161 10168 10186 10199 10205 10212 10223 10240 10245 10254 10276 10285 10282 10306 10310 10332 10339 10352 10362 10370 10379
10129 10123 10119 10115 10110 10105 10103 10102 10102 10103 10103 10101 10100 10099 10098 10097 10098 10103 10105 10108 10110 10114 10121 10130 10149 10156 10160 10165 10170 10182 10196 10209 10229 10244 10242 10263 10270 10291 10293 10306 10318 10329 10341
10099 10094 10089 10084 10080 10074 10074 10071 10073 10075 10073 10069 10066 10063 10066 10068 10067 10069 10072 10074 10076 10076 10085 10096 10105 10116 10120 10123 10123 10134 10152 10156 10188 10198 10189 10209 10238 10245 10246 10258 10279 10288 10297
10071 10064 10059 10053 10048 10046 10041 10042 10044 10044 10042 10040 10033 10031 10034 10038 10037 10037 10038 10042 10044 10043 10051 10059 10066 10073 10077 10082 10081 10087 10097 10115 10134 10147 10159 10156 10184 10184 10201 10219 10227 10245 10258